Location: Hamilton
(43.2500°N, 79.8330°W)
Time: 23:46:37
(UTC-04:00)

Amateur Radio Satellites - All Passes

Search period start: 18 September 2014 23:16
Search period end: 19 September 2014 23:16
Location: Hamilton, 43.2500°N, 79.8330°W

Satellite Date Start Highest point End Downlink Frequencies (MHz)
Time Altitude Azimuth
FUNcube-1 19 Sep 00:03:27 00:06:21 17° 269° (W) 00:09:19 145.950 - 145.970 MHz USB
KITSAT 1 19 Sep 00:17:08 00:21:23 15° 348° (NNW) 00:25:38 435.175 FM
Saudisat 1A 19 Sep 00:44:33 00:45:42 11° 31° (NNE) 00:46:51 436.775 MHz
SO-50 19 Sep 00:56:59 01:00:25 21° 320° (NW) 01:03:55 436.795 FM
UOSAT-12 19 Sep 00:57:48 01:02:20 58° 120° (ESE) 01:06:58 437.025 FM, 437.400 FM
Oscar 19 19 Sep 01:59:34 02:03:33 22° 93° (E) 02:07:29 437.125 CW, 437.150 USB
KITSAT 1 19 Sep 02:15:58 02:20:49 17° 19° (NNE) 02:25:40 435.175 FM
AO-27 19 Sep 02:16:34 02:19:05 13° 89° (E) 02:21:36 436.795 MHz FM
Saudisat 1A 19 Sep 02:21:57 02:26:18 53° 52° (NE) 02:30:36 436.775 MHz
ISS 19 Sep 02:29:12 02:30:14 11° 130° (SE) 02:31:16 145.800 FM
Oscar 16 19 Sep 02:37:30 02:42:33 50° 100° (E) 02:47:33 437.025 USB, Beacon 2401.1428
UOSAT-12 19 Sep 02:39:09 02:42:51 23° 319° (NW) 02:46:36 437.025 FM, 437.400 FM
AO-Echo 19 Sep 02:57:04 03:01:33 37° 98° (E) 03:06:07 ?
Gurwin Techsat 1B 19 Sep 03:03:45 03:07:24 19° 91° (E) 03:11:02 435.225 FM
ITAMSAT 1 19 Sep 03:19:12 03:24:17 51° 100° (E) 03:29:21 435.822 SSB
JAS-1B 19 Sep 03:23:04 03:28:48 59° 101° (E) 03:34:25 435.800 - 435.900 CW/SSB
Uribyol 2 19 Sep 03:23:34 03:28:45 60° 101° (ESE) 03:33:54 436.500 FM
Oscar 10/S400 19 Sep 03:35:09 04:40:21 25° 242° (WSW) 07:34:35 145.825 - 145.975 CW/USB, Beacon 145.810 USB
Oscar 19 19 Sep 03:38:10 03:43:08 48° 290° (WNW) 03:48:02 437.125 CW, 437.150 USB
TMSAT-1 19 Sep 03:40:36 03:45:13 30° 95° (E) 03:49:48 436.925 FM
RS-15 19 Sep 03:51:24 04:00:31 31° 105° (ESE) 04:09:29 29.354 - 29.394 USB, Beacon 29.352 USB
AO-27 19 Sep 03:53:57 03:59:11 78° 286° (WNW) 04:04:24 436.795 MHz FM
Saudisat 1A 19 Sep 04:02:28 04:05:29 18° 249° (WSW) 04:08:29 436.775 MHz
ISS 19 Sep 04:03:07 04:06:27 85° 146° (SE) 04:09:47 145.800 FM
KITSAT 1 19 Sep 04:11:07 04:18:45 43° 46° (NE) 04:26:19 435.175 FM
OPAL 19 Sep 04:12:13 04:16:44 31° 64° (ENE) 04:21:17 ?
Oscar 16 19 Sep 04:17:37 04:21:33 22° 297° (WNW) 04:25:28 437.025 USB, Beacon 2401.1428
AO-Echo 19 Sep 04:36:11 04:40:11 27° 294° (WNW) 04:44:15 ?
Gurwin Techsat 1B 19 Sep 04:42:32 04:47:46 59° 288° (WNW) 04:52:58 435.225 FM
ITAMSAT 1 19 Sep 04:59:28 05:03:26 22° 297° (WNW) 05:07:23 435.822 SSB
Uribyol 2 19 Sep 05:04:05 05:07:46 20° 299° (WNW) 05:11:25 436.500 FM
JAS-1B 19 Sep 05:14:55 05:18:59 20° 302° (WNW) 05:22:58 435.800 - 435.900 CW/SSB
TMSAT-1 19 Sep 05:20:20 05:25:11 37° 292° (WNW) 05:30:01 436.925 FM
AO-7 19 Sep 05:29:43 05:37:52 57° 103° (ESE) 05:45:58 29.400 - 29.500 MHz
AO-27 19 Sep 05:36:12 05:37:49 11° 304° (NW) 05:39:27 436.795 MHz FM
ISS 19 Sep 05:40:40 05:43:29 25° 345° (NNW) 05:46:18 145.800 FM
Uosat F 19 Sep 05:44:52 05:49:54 73° 103° (ESE) 05:54:55 435.120 FM
OPAL 19 Sep 05:50:45 05:55:30 36° 261° (W) 06:00:18 ?
RS-15 19 Sep 06:00:47 06:11:49 75° 307° (NW) 06:22:49 29.354 - 29.394 USB, Beacon 29.352 USB
SO-50 19 Sep 06:06:08 06:08:58 15° 35° (NE) 06:11:50 436.795 FM
KITSAT 1 19 Sep 06:06:35 06:14:19 52° 247° (WSW) 06:22:01 435.175 FM
STRAND 1 19 Sep 06:30:44 06:35:17 35° 67° (ENE) 06:39:53 ?
JAS-2 19 Sep 06:38:00 06:43:38 40° 98° (E) 06:49:55 435.800 - 435.900 CW/SSB, 435.910 FM
Hamsat 19 Sep 07:17:53 07:22:10 83° 102° (ESE) 07:26:23 145.90 MHz
ISS 19 Sep 07:18:29 07:21:00 19° 5° (N) 07:23:30 145.800 FM
AO-7 19 Sep 07:23:01 07:30:18 36° 302° (WNW) 07:37:35 29.400 - 29.500 MHz
Uosat F 19 Sep 07:25:12 07:28:06 16° 300° (WNW) 07:31:00 435.120 FM
SO-67 19 Sep 07:39:07 07:41:27 17° 93° (E) 07:43:47 435.3500 MHz FM
SO-50 19 Sep 07:45:31 07:50:20 76° 55° (NE) 07:55:12 436.795 FM
UOSAT-12 19 Sep 07:47:39 07:50:08 14° 33° (NNE) 07:52:36 437.025 FM, 437.400 FM
STRAND 1 19 Sep 08:10:04 08:14:29 30° 264° (W) 08:18:57 ?
RS-15 19 Sep 08:17:05 08:26:20 30° 336° (NNW) 08:35:40 29.354 - 29.394 USB, Beacon 29.352 USB
JAS-2 19 Sep 08:23:21 08:28:38 35° 293° (WNW) 08:34:31 435.800 - 435.900 CW/SSB, 435.910 FM
MaSat-1 19 Sep 08:49:09 08:53:56 47° 111° (ESE) 08:58:41 437.345 MHz
HO-68 19 Sep 08:52:37 08:56:26 15° 88° (E) 09:00:15 435.675 MHz FM
ISS 19 Sep 08:55:08 08:58:20 42° 25° (NNE) 09:01:31 145.800 FM
Hamsat 19 Sep 08:56:46 08:57:27 10° 300° (WNW) 08:58:08 145.90 MHz
SO-67 19 Sep 09:11:32 09:14:31 27° 289° (WNW) 09:17:29 435.3500 MHz FM
UOSAT-12 19 Sep 09:26:28 09:31:12 67° 53° (NE) 09:35:50 437.025 FM, 437.400 FM
SO-50 19 Sep 09:27:46 09:30:19 14° 251° (WSW) 09:32:53 436.795 FM
Oscar 11 19 Sep 10:25:23 10:29:05 26° 95° (E) 10:32:44 145.825 FM, Beacon 2401.500 USB
MaSat-1 19 Sep 10:26:41 10:30:54 26° 308° (NW) 10:35:02 437.345 MHz
ISS 19 Sep 10:32:01 10:34:57 29° 223° (SW) 10:37:53 145.800 FM
RS-15 19 Sep 10:34:54 10:43:28 25° 11° (NNE) 10:52:10 29.354 - 29.394 USB, Beacon 29.352 USB
HO-68 19 Sep 10:37:55 10:45:08 84° 106° (ESE) 10:52:20 435.675 MHz FM
UKube-1 19 Sep 10:41:15 10:45:31 52° 100° (E) 10:49:46 145.840 MHz, 145.915 MHz
UOSAT-12 19 Sep 11:08:01 11:10:48 16° 251° (WSW) 11:13:33 437.025 FM, 437.400 FM
Sapphire 19 Sep 11:41:46 11:44:32 14° 103° (ESE) 11:47:19 437.095 MHz 1200 baud AX-25 AFSK
FUNcube-1 19 Sep 11:49:35 11:54:15 89° 103° (ESE) 11:58:50 145.950 - 145.970 MHz USB
Oscar 11 19 Sep 12:01:28 12:05:14 29° 292° (WNW) 12:08:59 145.825 FM, Beacon 2401.500 USB
PCSat 19 Sep 12:06:51 12:11:16 26° 108° (ESE) 12:15:43 145.825 MHz
UKube-1 19 Sep 12:18:34 12:21:19 17° 297° (WNW) 12:24:04 145.840 MHz, 145.915 MHz
Oscar 16 19 Sep 12:20:13 12:22:04 12° 57° (ENE) 12:23:56 437.025 USB, Beacon 2401.1428
JAS-1B 19 Sep 12:22:39 12:25:59 13° 53° (NE) 12:29:07 435.800 - 435.900 CW/SSB
HO-68 19 Sep 12:26:54 12:32:01 22° 305° (NW) 12:37:09 435.675 MHz FM
RS-15 19 Sep 12:48:36 12:59:18 51° 43° (NE) 13:10:20 29.354 - 29.394 USB, Beacon 29.352 USB
ITAMSAT 1 19 Sep 13:02:41 13:04:45 12° 57° (ENE) 13:06:50 435.822 SSB
Uribyol 2 19 Sep 13:06:17 13:08:57 14° 58° (ENE) 13:11:38 436.500 FM
Oscar 19 19 Sep 13:17:13 13:21:55 36° 67° (ENE) 13:26:38 437.125 CW, 437.150 USB
Sapphire 19 Sep 13:21:48 13:27:13 82° 301° (WNW) 13:32:40 437.095 MHz 1200 baud AX-25 AFSK
FUNcube-1 19 Sep 13:28:27 13:29:54 11° 301° (WNW) 13:31:20 145.950 - 145.970 MHz USB
AO-27 19 Sep 13:35:11 13:39:17 24° 63° (ENE) 13:43:23 436.795 MHz FM
PCSat 19 Sep 13:49:12 13:54:25 48° 307° (NW) 13:59:40 145.825 MHz
Oscar 16 19 Sep 13:55:23 14:00:34 81° 74° (ENE) 14:05:48 437.025 USB, Beacon 2401.1428
JAS-1B 19 Sep 14:07:06 14:15:32 63° 71° (ENE) 14:22:35 435.800 - 435.900 CW/SSB
Oscar 10/S400 19 Sep 14:08:00 14:17:02 13° 147° (SSE) 14:24:54 145.825 - 145.975 CW/USB, Beacon 145.810 USB
AO-Echo 19 Sep 14:11:15 14:15:51 53° 72° (ENE) 14:20:25 ?
Gurwin Techsat 1B 19 Sep 14:25:35 14:30:16 33° 66° (ENE) 14:34:57 435.225 FM
ITAMSAT 1 19 Sep 14:38:17 14:43:26 85° 75° (ENE) 14:48:39 435.822 SSB
AO-7 19 Sep 14:40:35 14:46:15 21° 49° (NE) 14:51:53 29.400 - 29.500 MHz
Uribyol 2 19 Sep 14:42:33 14:47:43 83° 256° (WSW) 14:52:56 436.500 FM
Oscar 19 19 Sep 14:56:45 15:01:17 30° 265° (W) 15:05:50 437.125 CW, 437.150 USB
RS-15 19 Sep 15:01:10 15:11:51 56° 247° (WSW) 15:22:59 29.354 - 29.394 USB, Beacon 29.352 USB
TMSAT-1 19 Sep 15:02:16 15:07:22 51° 70° (ENE) 15:12:29 436.925 FM
Sapphire 19 Sep 15:08:03 15:11:30 17° 322° (NW) 15:14:59 437.095 MHz 1200 baud AX-25 AFSK
AO-27 19 Sep 15:13:34 15:18:31 46° 261° (W) 15:23:30 436.795 MHz FM
Uosat F 19 Sep 15:23:12 15:26:01 15° 59° (ENE) 15:28:51 435.120 FM
PCSat 19 Sep 15:37:31 15:39:14 11° 329° (NNW) 15:40:56 145.825 MHz
Oscar 16 19 Sep 15:38:18 15:40:33 13° 272° (W) 15:42:48 437.025 USB, Beacon 2401.1428
AO-Echo 19 Sep 15:51:55 15:54:57 17° 268° (W) 15:57:59 ?
JAS-1B 19 Sep 15:59:12 16:06:20 29° 265° (W) 16:12:36 435.800 - 435.900 CW/SSB
Gurwin Techsat 1B 19 Sep 16:05:23 16:10:10 34° 264° (W) 16:14:59 435.225 FM
ITAMSAT 1 19 Sep 16:21:44 16:23:36 12° 272° (W) 16:25:28 435.822 SSB
AO-7 19 Sep 16:29:31 16:37:50 81° 69° (ENE) 16:46:09 29.400 - 29.500 MHz
TMSAT-1 19 Sep 16:43:34 16:47:33 22° 268° (W) 16:51:35 436.925 FM
JAS-2 19 Sep 16:54:35 16:57:41 16° 60° (ENE) 17:00:48 435.800 - 435.900 CW/SSB, 435.910 FM
Uosat F 19 Sep 16:59:13 17:04:12 74° 257° (WSW) 17:09:13 435.120 FM
MaSat-1 19 Sep 17:06:20 17:08:03 12° 43° (NE) 17:09:39 437.345 MHz
OPAL 19 Sep 17:59:09 18:04:15 54° 103° (ESE) 18:09:13 ?
Saudisat 1A 19 Sep 18:08:21 18:12:45 89° 124° (ESE) 18:17:12 436.775 MHz
Hamsat 19 Sep 18:11:48 18:16:07 67° 75° (ENE) 18:20:27 145.90 MHz
AO-7 19 Sep 18:25:22 18:31:28 22° 268° (W) 18:37:36 29.400 - 29.500 MHz
JAS-2 19 Sep 18:37:02 18:42:17 67° 258° (WSW) 18:47:27 435.800 - 435.900 CW/SSB, 435.910 FM
MaSat-1 19 Sep 18:41:35 18:45:27 68° 246° (WSW) 18:48:43 437.345 MHz
KITSAT 1 19 Sep 18:42:51 18:48:35 22° 103° (ESE) 18:54:18 435.175 FM
HO-68 19 Sep 19:23:57 19:27:41 15° 50° (NE) 19:31:26 435.675 MHz FM
OPAL 19 Sep 19:38:52 19:42:43 22° 300° (WNW) 19:46:32 ?
SO-67 19 Sep 19:44:42 19:48:09 75° 258° (WSW) 19:51:37 435.3500 MHz FM
Saudisat 1A 19 Sep 19:50:17 19:52:58 16° 323° (NW) 19:55:40 436.775 MHz
Hamsat 19 Sep 19:50:54 19:52:30 12° 271° (W) 19:54:07 145.90 MHz
STRAND 1 19 Sep 20:18:39 20:23:49 85° 104° (ESE) 20:28:58 ?
Sapphire 19 Sep 20:26:18 20:30:11 19° 41° (NE) 20:34:03 437.095 MHz 1200 baud AX-25 AFSK
KITSAT 1 19 Sep 20:34:54 20:43:00 84° 302° (WNW) 20:51:09 435.175 FM
PCSat 19 Sep 20:52:54 20:57:39 30° 47° (NE) 21:02:23 145.825 MHz
HO-68 19 Sep 21:07:05 21:14:09 70° 70° (ENE) 21:21:15 435.675 MHz FM
Oscar 11 19 Sep 21:21:37 21:25:11 25° 67° (ENE) 21:28:45 145.825 FM, Beacon 2401.500 USB
UKube-1 19 Sep 21:37:39 21:41:51 51° 72° (ENE) 21:46:04 145.840 MHz, 145.915 MHz
STRAND 1 19 Sep 21:59:44 22:02:18 14° 302° (WNW) 22:04:52 ?
SO-50 19 Sep 22:03:01 22:06:04 18° 110° (ESE) 22:09:11 436.795 FM
Sapphire 19 Sep 22:08:50 22:14:18 83° 241° (WSW) 22:19:43 437.095 MHz 1200 baud AX-25 AFSK
KITSAT 1 19 Sep 22:33:05 22:39:38 26° 326° (NW) 22:46:12 435.175 FM
PCSat 19 Sep 22:36:05 22:41:16 47° 247° (WSW) 22:46:24 145.825 MHz
FUNcube-1 19 Sep 22:46:43 22:51:06 80° 75° (ENE) 22:55:39 145.950 - 145.970 MHz USB
HO-68 19 Sep 22:57:01 23:02:26 23° 268° (W) 23:07:53 435.675 MHz FM
Oscar 11 19 Sep 22:57:19 23:01:13 32° 264° (W) 23:05:10 145.825 FM, Beacon 2401.500 USB
